owner,sensor,date,latitude,longitude,vertical_datum,wind_speed,wind_to_direction,wind_speed_of_gust,qcFlag 
LUMCON,ioos:station:LUMCON:101:1,2016-04-01T00:00:00Z,29.2533,-90.6633,1.0,7.1,155.0,-9999.0,'1111122,1111122,1111122' 
LUMCON,ioos:station:LUMCON:101:1,2016-04-01T00:15:00Z,29.2533,-90.6633,1.0,6.9,135.0,-9999.0,'1111122,1111122,1111122' 
LUMCON,ioos:station:LUMCON:101:1,2016-04-01T00:30:00Z,29.2533,-90.6633,1.0,7.4,162.0,-9999.0,'1111122,1111122,1111122' 
LUMCON,ioos:station:LUMCON:101:1,2016-04-01T00:45:00Z,29.2533,-90.6633,1.0,4.5,165.0,-9999.0,'1111122,1111122,1111122' 
LUMCON,ioos:station:LUMCON:101:1,2016-04-01T01:00:00Z,29.2533,-90.6633,1.0,5.1,141.0,-9999.0,'1111122,1111122,1111122' 
LUMCON,ioos:station:LUMCON:101:1,2016-04-01T01:15:00Z,29.2533,-90.6633,1.0,5.3,158.0,-9999.0,'1111122,1111122,1111122' 
LUMCON,ioos:station:LUMCON:101:1,2016-04-01T01:30:00Z,29.2533,-90.6633,1.0,5.4,154.0,-9999.0,'1111122,1111122,1111122' 
LUMCON,ioos:station:LUMCON:101:1,2016-04-01T01:45:00Z,29.2533,-90.6633,1.0,8.0,150.0,-9999.0,'1111122,1111122,1111122' 
LUMCON,ioos:station:LUMCON:101:1,2016-04-01T02:00:00Z,29.2533,-90.6633,1.0,6.0,150.0,-9999.0,'1111122,1111122,1111122' 
LUMCON,ioos:station:LUMCON:101:1,2016-04-01T02:15:00Z,29.2533,-90.6633,1.0,4.9,168.0,-9999.0,'1111122,1111122,1111122' 
LUMCON,ioos:station:LUMCON:101:1,2016-04-01T02:30:00Z,29.2533,-90.6633,1.0,7.3,166.0,-9999.0,'1111122,1111122,1111122' 
LUMCON,ioos:station:LUMCON:101:1,2016-04-01T02:45:00Z,29.2533,-90.6633,1.0,6.1,163.0,-9999.0,'1111122,1111122,1111122' 
LUMCON,ioos:station:LUMCON:101:1,2016-04-01T03:00:00Z,29.2533,-90.6633,1.0,6.2,144.0,-9999.0,'1111122,1111122,1111122' 
LUMCON,ioos:station:LUMCON:101:1,2016-04-01T03:15:00Z,29.2533,-90.6633,1.0,6.1,153.0,-9999.0,'1111122,1111122,1111122' 
LUMCON,ioos:station:LUMCON:101:1,2016-04-01T03:30:00Z,29.2533,-90.6633,1.0,6.2,179.0,-9999.0,'1111122,1111122,1111122' 
LUMCON,ioos:station:LUMCON:101:1,2016-04-01T03:45:00Z,29.2533,-90.6633,1.0,6.1,168.0,-9999.0,'1111122,1111122,1111122' 
LUMCON,ioos:station:LUMCON:101:1,2016-04-01T04:00:00Z,29.2533,-90.6633,1.0,6.9,166.0,-9999.0,'1111122,1111122,1111122' 
LUMCON,ioos:station:LUMCON:101:1,2016-04-01T04:15:00Z,29.2533,-90.6633,1.0,5.9,156.0,-9999.0,'1111122,1111122,1111122' 
LUMCON,ioos:station:LUMCON:101:1,2016-04-01T04:30:00Z,29.2533,-90.6633,1.0,5.4,158.0,-9999.0,'1111122,1111122,1111122' 
LUMCON,ioos:station:LUMCON:101:1,2016-04-01T04:45:00Z,29.2533,-90.6633,1.0,5.3,172.0,-9999.0,'1111122,1111122,1111122' 
LUMCON,ioos:station:LUMCON:101:1,2016-04-01T05:00:00Z,29.2533,-90.6633,1.0,6.5,149.0,-9999.0,'1111122,1111122,1111122' 
LUMCON,ioos:station:LUMCON:101:1,2016-04-01T05:15:00Z,29.2533,-90.6633,1.0,8.4,164.0,-9999.0,'1111122,1111122,1111122' 
LUMCON,ioos:station:LUMCON:101:1,2016-04-01T05:30:00Z,29.2533,-90.6633,1.0,5.9,166.0,-9999.0,'1111122,1111122,1111122' 
LUMCON,ioos:station:LUMCON:101:1,2016-04-01T05:45:00Z,29.2533,-90.6633,1.0,4.5,156.0,-9999.0,'1111122,1111122,1111122' 
LUMCON,ioos:station:LUMCON:101:1,2016-04-01T06:00:00Z,29.2533,-90.6633,1.0,6.4,175.0,-9999.0,'1111122,1111122,1111122' 
LUMCON,ioos:station:LUMCON:101:1,2016-04-01T06:15:00Z,29.2533,-90.6633,1.0,5.0,164.0,-9999.0,'1111122,1111122,1111122' 
LUMCON,ioos:station:LUMCON:101:1,2016-04-01T06:30:00Z,29.2533,-90.6633,1.0,4.4,155.0,-9999.0,'1111122,1111122,1111122' 
LUMCON,ioos:station:LUMCON:101:1,2016-04-01T06:45:00Z,29.2533,-90.6633,1.0,8.3,169.0,-9999.0,'1111122,1111122,1111122' 
LUMCON,ioos:station:LUMCON:101:1,2016-04-01T07:00:00Z,29.2533,-90.6633,1.0,7.3,176.0,-9999.0,'1111122,1111122,1111122' 
LUMCON,ioos:station:LUMCON:101:1,2016-04-01T07:15:00Z,29.2533,-90.6633,1.0,7.0,174.0,-9999.0,'1111122,1111122,1111122' 
LUMCON,ioos:station:LUMCON:101:1,2016-04-01T07:30:00Z,29.2533,-90.6633,1.0,5.2,178.0,-9999.0,'1111122,1111122,1111122' 
LUMCON,ioos:station:LUMCON:101:1,2016-04-01T07:45:00Z,29.2533,-90.6633,1.0,5.4,179.0,-9999.0,'1111122,1111122,1111122' 
LUMCON,ioos:station:LUMCON:101:1,2016-04-01T08:00:00Z,29.2533,-90.6633,1.0,5.3,189.0,-9999.0,'1111122,1111122,1111122' 
LUMCON,ioos:station:LUMCON:101:1,2016-04-01T08:15:00Z,29.2533,-90.6633,1.0,5.9,187.0,-9999.0,'1111122,1111122,1111122' 
LUMCON,ioos:station:LUMCON:101:1,2016-04-01T08:30:00Z,29.2533,-90.6633,1.0,6.0,184.0,-9999.0,'1111122,1111122,1111122' 
LUMCON,ioos:station:LUMCON:101:1,2016-04-01T08:45:00Z,29.2533,-90.6633,1.0,3.2,178.0,-9999.0,'1111122,1111122,1111122' 
LUMCON,ioos:station:LUMCON:101:1,2016-04-01T09:00:00Z,29.2533,-90.6633,1.0,4.4,168.0,-9999.0,'1111122,1111122,1111122' 
LUMCON,ioos:station:LUMCON:101:1,2016-04-01T09:15:00Z,29.2533,-90.6633,1.0,5.3,149.0,-9999.0,'1111122,1111122,1111122' 
LUMCON,ioos:station:LUMCON:101:1,2016-04-01T09:30:00Z,29.2533,-90.6633,1.0,4.3,162.0,-9999.0,'1111122,1111122,1111122' 
LUMCON,ioos:station:LUMCON:101:1,2016-04-01T09:45:00Z,29.2533,-90.6633,1.0,5.7,155.0,-9999.0,'1111122,1111122,1111122' 
LUMCON,ioos:station:LUMCON:101:1,2016-04-01T10:00:00Z,29.2533,-90.6633,1.0,3.1,130.0,-9999.0,'1111122,1111122,1111122' 
LUMCON,ioos:station:LUMCON:101:1,2016-04-01T10:15:00Z,29.2533,-90.6633,1.0,3.9,148.0,-9999.0,'1111122,1111122,1111122' 
LUMCON,ioos:station:LUMCON:101:1,2016-04-01T10:30:00Z,29.2533,-90.6633,1.0,2.9,139.0,-9999.0,'1111122,1111122,1111122' 
LUMCON,ioos:station:LUMCON:101:1,2016-04-01T10:45:00Z,29.2533,-90.6633,1.0,3.3,178.0,-9999.0,'1111122,1111122,1111122' 
LUMCON,ioos:station:LUMCON:101:1,2016-04-01T11:00:00Z,29.2533,-90.6633,1.0,3.7,181.0,-9999.0,'1111122,1111122,1111122' 
LUMCON,ioos:station:LUMCON:101:1,2016-04-01T11:15:00Z,29.2533,-90.6633,1.0,2.3,133.0,-9999.0,'1111122,1111122,1111122' 
LUMCON,ioos:station:LUMCON:101:1,2016-04-01T11:30:00Z,29.2533,-90.6633,1.0,2.9,145.0,-9999.0,'1111122,1111122,1111122' 
LUMCON,ioos:station:LUMCON:101:1,2016-04-01T11:45:00Z,29.2533,-90.6633,1.0,2.0,176.0,-9999.0,'1111122,1111122,1111122' 
LUMCON,ioos:station:LUMCON:101:1,2016-04-01T12:00:00Z,29.2533,-90.6633,1.0,1.9,221.0,-9999.0,'1111122,1111122,1111122' 
LUMCON,ioos:station:LUMCON:101:1,2016-04-01T12:15:00Z,29.2533,-90.6633,1.0,2.0,223.0,-9999.0,'1111122,1111122,1111122' 
LUMCON,ioos:station:LUMCON:101:1,2016-04-01T12:30:00Z,29.2533,-90.6633,1.0,0.3,50.0,-9999.0,'1111122,1111122,1111122' 
LUMCON,ioos:station:LUMCON:101:1,2016-04-01T12:45:00Z,29.2533,-90.6633,1.0,-9999.0,99.0,-9999.0,'1111122,1111122,1111122' 
LUMCON,ioos:station:LUMCON:101:1,2016-04-01T13:00:00Z,29.2533,-90.6633,1.0,0.1,255.0,-9999.0,'1111122,1111122,1111122' 
LUMCON,ioos:station:LUMCON:101:1,2016-04-01T13:15:00Z,29.2533,-90.6633,1.0,0.5,71.0,-9999.0,'1111122,1111122,1111122' 
LUMCON,ioos:station:LUMCON:101:1,2016-04-01T13:30:00Z,29.2533,-90.6633,1.0,2.7,148.0,-9999.0,'1111122,1111122,1111122' 
LUMCON,ioos:station:LUMCON:101:1,2016-04-01T13:45:00Z,29.2533,-90.6633,1.0,3.1,107.0,-9999.0,'1111122,1111122,1111122' 
LUMCON,ioos:station:LUMCON:101:1,2016-04-01T14:00:00Z,29.2533,-90.6633,1.0,4.7,172.0,-9999.0,'1111122,1111122,1111122' 
LUMCON,ioos:station:LUMCON:101:1,2016-04-01T14:15:00Z,29.2533,-90.6633,1.0,3.1,174.0,-9999.0,'1111122,1111122,1111122' 
LUMCON,ioos:station:LUMCON:101:1,2016-04-01T14:30:00Z,29.2533,-90.6633,1.0,2.9,202.0,-9999.0,'1111122,1111122,1111122' 
LUMCON,ioos:station:LUMCON:101:1,2016-04-01T14:45:00Z,29.2533,-90.6633,1.0,1.5,173.0,-9999.0,'1111122,1111122,1111122' 
LUMCON,ioos:station:LUMCON:101:1,2016-04-01T15:00:00Z,29.2533,-90.6633,1.0,3.2,122.0,-9999.0,'1111122,1111122,1111122' 
LUMCON,ioos:station:LUMCON:101:1,2016-04-01T15:15:00Z,29.2533,-90.6633,1.0,3.6,148.0,-9999.0,'1111122,1111122,1111122' 
LUMCON,ioos:station:LUMCON:101:1,2016-04-01T15:30:00Z,29.2533,-90.6633,1.0,4.6,117.0,-9999.0,'1111122,1111122,1111122' 
LUMCON,ioos:station:LUMCON:101:1,2016-04-01T15:45:00Z,29.2533,-90.6633,1.0,4.2,130.0,-9999.0,'1111122,1111122,1111122' 
LUMCON,ioos:station:LUMCON:101:1,2016-04-01T16:00:00Z,29.2533,-90.6633,1.0,2.6,102.0,-9999.0,'1111122,1111122,1111122' 
LUMCON,ioos:station:LUMCON:101:1,2016-04-01T16:15:00Z,29.2533,-90.6633,1.0,2.7,127.0,-9999.0,'1111122,1111122,1111122' 
LUMCON,ioos:station:LUMCON:101:1,2016-04-01T16:30:00Z,29.2533,-90.6633,1.0,1.6,43.0,-9999.0,'1111122,1111122,1111122' 
LUMCON,ioos:station:LUMCON:101:1,2016-04-01T16:45:00Z,29.2533,-90.6633,1.0,3.0,51.0,-9999.0,'1111122,1111122,1111122' 
LUMCON,ioos:station:LUMCON:101:1,2016-04-01T17:00:00Z,29.2533,-90.6633,1.0,4.6,347.0,-9999.0,'1111122,1111122,1111122' 
LUMCON,ioos:station:LUMCON:101:1,2016-04-01T17:15:00Z,29.2533,-90.6633,1.0,11.9,311.0,-9999.0,'1111122,1111122,1111122' 
LUMCON,ioos:station:LUMCON:101:1,2016-04-01T17:30:00Z,29.2533,-90.6633,1.0,3.8,34.0,-9999.0,'1111122,1111122,1111122' 
LUMCON,ioos:station:LUMCON:101:1,2016-04-01T17:45:00Z,29.2533,-90.6633,1.0,3.3,31.0,-9999.0,'1111122,1111122,1111122' 
LUMCON,ioos:station:LUMCON:101:1,2016-04-01T18:00:00Z,29.2533,-90.6633,1.0,4.0,32.0,-9999.0,'1111122,1111122,1111122' 
LUMCON,ioos:station:LUMCON:101:1,2016-04-01T18:15:00Z,29.2533,-90.6633,1.0,7.0,18.0,-9999.0,'1111122,1111122,1111122' 
LUMCON,ioos:station:LUMCON:101:1,2016-04-01T18:30:00Z,29.2533,-90.6633,1.0,5.0,39.0,-9999.0,'1111122,1111122,1111122' 
LUMCON,ioos:station:LUMCON:101:1,2016-04-01T18:45:00Z,29.2533,-90.6633,1.0,5.1,40.0,-9999.0,'1111122,1111122,1111122' 
LUMCON,ioos:station:LUMCON:101:1,2016-04-01T19:00:00Z,29.2533,-90.6633,1.0,4.2,55.0,-9999.0,'1111122,1111122,1111122' 
LUMCON,ioos:station:LUMCON:101:1,2016-04-01T19:15:00Z,29.2533,-90.6633,1.0,3.7,20.0,-9999.0,'1111122,1111122,1111122' 
LUMCON,ioos:station:LUMCON:101:1,2016-04-01T19:30:00Z,29.2533,-90.6633,1.0,6.8,11.0,-9999.0,'1111122,1111122,1111122' 
LUMCON,ioos:station:LUMCON:101:1,2016-04-01T19:45:00Z,29.2533,-90.6633,1.0,6.4,2.0,-9999.0,'1111122,1111122,1111122' 
LUMCON,ioos:station:LUMCON:101:1,2016-04-01T20:00:00Z,29.2533,-90.6633,1.0,7.0,14.0,-9999.0,'1111122,1111122,1111122' 
LUMCON,ioos:station:LUMCON:101:1,2016-04-01T20:15:00Z,29.2533,-90.6633,1.0,6.1,356.0,-9999.0,'1111122,1111122,1111122' 
LUMCON,ioos:station:LUMCON:101:1,2016-04-01T20:30:00Z,29.2533,-90.6633,1.0,6.5,349.0,-9999.0,'1111122,1111122,1111122' 
LUMCON,ioos:station:LUMCON:101:1,2016-04-01T20:45:00Z,29.2533,-90.6633,1.0,8.6,4.0,-9999.0,'1111122,1111122,1111122' 
LUMCON,ioos:station:LUMCON:101:1,2016-04-01T21:00:00Z,29.2533,-90.6633,1.0,9.1,14.0,-9999.0,'1111122,1111122,1111122' 
LUMCON,ioos:station:LUMCON:101:1,2016-04-01T21:15:00Z,29.2533,-90.6633,1.0,6.5,351.0,-9999.0,'1111122,1111122,1111122' 
LUMCON,ioos:station:LUMCON:101:1,2016-04-01T21:30:00Z,29.2533,-90.6633,1.0,15.1,307.0,-9999.0,'1111122,1111122,1111122' 
LUMCON,ioos:station:LUMCON:101:1,2016-04-01T21:45:00Z,29.2533,-90.6633,1.0,10.3,336.0,-9999.0,'1111122,1111122,1111122' 
LUMCON,ioos:station:LUMCON:101:1,2016-04-01T22:15:00Z,29.2533,-90.6633,1.0,11.9,354.0,-9999.0,'1111122,1111122,1111122' 
LUMCON,ioos:station:LUMCON:101:1,2016-04-01T22:30:00Z,29.2533,-90.6633,1.0,6.4,356.0,-9999.0,'1111122,1111122,1111122' 
LUMCON,ioos:station:LUMCON:101:1,2016-04-01T22:45:00Z,29.2533,-90.6633,1.0,11.0,352.0,-9999.0,'1111122,1111122,1111122' 
LUMCON,ioos:station:LUMCON:101:1,2016-04-01T23:00:00Z,29.2533,-90.6633,1.0,9.7,356.0,-9999.0,'1111122,1111122,1111122' 
LUMCON,ioos:station:LUMCON:101:1,2016-04-01T23:15:00Z,29.2533,-90.6633,1.0,9.4,353.0,-9999.0,'1111122,1111122,1111122' 
LUMCON,ioos:station:LUMCON:101:1,2016-04-01T23:30:00Z,29.2533,-90.6633,1.0,9.7,354.0,-9999.0,'1111122,1111122,1111122' 
LUMCON,ioos:station:LUMCON:101:1,2016-04-01T23:45:00Z,29.2533,-90.6633,1.0,12.2,349.0,-9999.0,'1111122,1111122,1111122' 
LUMCON,ioos:station:LUMCON:101:1,2016-04-02T00:00:00Z,29.2533,-90.6633,1.0,10.6,357.0,-9999.0,'1111122,1111122,1111122' 
LUMCON,ioos:station:LUMCON:101:1,2016-04-02T00:15:00Z,29.2533,-90.6633,1.0,9.3,351.0,-9999.0,'1111122,1111122,1111122' 
LUMCON,ioos:station:LUMCON:101:1,2016-04-02T00:30:00Z,29.2533,-90.6633,1.0,10.2,350.0,-9999.0,'1111122,1111122,1111122' 
LUMCON,ioos:station:LUMCON:101:1,2016-04-02T00:45:00Z,29.2533,-90.6633,1.0,12.4,337.0,-9999.0,'1111122,1111122,1111122' 
LUMCON,ioos:station:LUMCON:101:1,2016-04-02T01:00:00Z,29.2533,-90.6633,1.0,6.8,359.0,-9999.0,'1111122,1111122,1111122' 
LUMCON,ioos:station:LUMCON:101:1,2016-04-02T01:15:00Z,29.2533,-90.6633,1.0,11.6,343.0,-9999.0,'1111122,1111122,1111122' 
LUMCON,ioos:station:LUMCON:101:1,2016-04-02T01:30:00Z,29.2533,-90.6633,1.0,8.0,344.0,-9999.0,'1111122,1111122,1111122' 
LUMCON,ioos:station:LUMCON:101:1,2016-04-02T01:45:00Z,29.2533,-90.6633,1.0,8.9,341.0,-9999.0,'1111122,1111122,1111122' 
LUMCON,ioos:station:LUMCON:101:1,2016-04-02T02:00:00Z,29.2533,-90.6633,1.0,7.5,339.0,-9999.0,'1111122,1111122,1111122' 
LUMCON,ioos:station:LUMCON:101:1,2016-04-02T02:15:00Z,29.2533,-90.6633,1.0,11.5,346.0,-9999.0,'1111122,1111122,1111122' 
LUMCON,ioos:station:LUMCON:101:1,2016-04-02T02:30:00Z,29.2533,-90.6633,1.0,8.3,350.0,-9999.0,'1111122,1111122,1111122' 
LUMCON,ioos:station:LUMCON:101:1,2016-04-02T02:45:00Z,29.2533,-90.6633,1.0,11.2,356.0,-9999.0,'1111122,1111122,1111122' 
LUMCON,ioos:station:LUMCON:101:1,2016-04-02T03:00:00Z,29.2533,-90.6633,1.0,8.2,358.0,-9999.0,'1111122,1111122,1111122' 
LUMCON,ioos:station:LUMCON:101:1,2016-04-02T03:15:00Z,29.2533,-90.6633,1.0,7.2,349.0,-9999.0,'1111122,1111122,1111122' 
LUMCON,ioos:station:LUMCON:101:1,2016-04-02T03:30:00Z,29.2533,-90.6633,1.0,7.8,345.0,-9999.0,'1111122,1111122,1111122' 
LUMCON,ioos:station:LUMCON:101:1,2016-04-02T03:45:00Z,29.2533,-90.6633,1.0,8.7,339.0,-9999.0,'1111122,1111122,1111122' 
LUMCON,ioos:station:LUMCON:101:1,2016-04-02T04:00:00Z,29.2533,-90.6633,1.0,10.1,350.0,-9999.0,'1111122,1111122,1111122' 
LUMCON,ioos:station:LUMCON:101:1,2016-04-02T04:15:00Z,29.2533,-90.6633,1.0,8.4,348.0,-9999.0,'1111122,1111122,1111122' 
LUMCON,ioos:station:LUMCON:101:1,2016-04-02T04:30:00Z,29.2533,-90.6633,1.0,8.1,343.0,-9999.0,'1111122,1111122,1111122' 
LUMCON,ioos:station:LUMCON:101:1,2016-04-02T04:45:00Z,29.2533,-90.6633,1.0,8.3,350.0,-9999.0,'1111122,1111122,1111122' 
LUMCON,ioos:station:LUMCON:101:1,2016-04-02T05:00:00Z,29.2533,-90.6633,1.0,9.1,341.0,-9999.0,'1111122,1111122,1111122' 
LUMCON,ioos:station:LUMCON:101:1,2016-04-02T05:15:00Z,29.2533,-90.6633,1.0,7.9,340.0,-9999.0,'1111122,1111122,1111122' 
LUMCON,ioos:station:LUMCON:101:1,2016-04-02T05:30:00Z,29.2533,-90.6633,1.0,9.3,352.0,-9999.0,'1111122,1111122,1111122' 
LUMCON,ioos:station:LUMCON:101:1,2016-04-02T05:45:00Z,29.2533,-90.6633,1.0,7.4,345.0,-9999.0,'1111122,1111122,1111122' 
LUMCON,ioos:station:LUMCON:101:1,2016-04-02T06:00:00Z,29.2533,-90.6633,1.0,8.6,347.0,-9999.0,'1111122,1111122,1111122' 
LUMCON,ioos:station:LUMCON:101:1,2016-04-02T06:15:00Z,29.2533,-90.6633,1.0,5.8,0.0,-9999.0,'1111122,1114422,1111122' 
LUMCON,ioos:station:LUMCON:101:1,2016-04-02T06:30:00Z,29.2533,-90.6633,1.0,7.2,342.0,-9999.0,'1111122,1111122,1111122' 
LUMCON,ioos:station:LUMCON:101:1,2016-04-02T06:45:00Z,29.2533,-90.6633,1.0,7.8,346.0,-9999.0,'1111122,1111122,1111122' 
LUMCON,ioos:station:LUMCON:101:1,2016-04-02T07:00:00Z,29.2533,-90.6633,1.0,8.3,341.0,-9999.0,'1111122,1111122,1111122' 
LUMCON,ioos:station:LUMCON:101:1,2016-04-02T07:15:00Z,29.2533,-90.6633,1.0,11.7,328.0,-9999.0,'1111122,1111122,1111122' 
LUMCON,ioos:station:LUMCON:101:1,2016-04-02T07:30:00Z,29.2533,-90.6633,1.0,9.8,325.0,-9999.0,'1111122,1111122,1111122' 
LUMCON,ioos:station:LUMCON:101:1,2016-04-02T07:45:00Z,29.2533,-90.6633,1.0,10.4,339.0,-9999.0,'1111122,1111122,1111122' 
LUMCON,ioos:station:LUMCON:101:1,2016-04-02T08:00:00Z,29.2533,-90.6633,1.0,11.3,331.0,-9999.0,'1111122,1111122,1111122' 
LUMCON,ioos:station:LUMCON:101:1,2016-04-02T08:15:00Z,29.2533,-90.6633,1.0,10.3,342.0,-9999.0,'1111122,1111122,1111122' 
LUMCON,ioos:station:LUMCON:101:1,2016-04-02T08:30:00Z,29.2533,-90.6633,1.0,10.6,344.0,-9999.0,'1111122,1111122,1111122' 
LUMCON,ioos:station:LUMCON:101:1,2016-04-02T08:45:00Z,29.2533,-90.6633,1.0,11.6,334.0,-9999.0,'1111122,1111122,1111122' 
LUMCON,ioos:station:LUMCON:101:1,2016-04-02T09:00:00Z,29.2533,-90.6633,1.0,11.8,341.0,-9999.0,'1111122,1111122,1111122' 
LUMCON,ioos:station:LUMCON:101:1,2016-04-02T09:15:00Z,29.2533,-90.6633,1.0,10.2,342.0,-9999.0,'1111122,1111122,1111122' 
LUMCON,ioos:station:LUMCON:101:1,2016-04-02T09:30:00Z,29.2533,-90.6633,1.0,9.8,339.0,-9999.0,'1111122,1111122,1111122' 
LUMCON,ioos:station:LUMCON:101:1,2016-04-02T09:45:00Z,29.2533,-90.6633,1.0,8.6,332.0,-9999.0,'1111122,1111122,1111122' 
LUMCON,ioos:station:LUMCON:101:1,2016-04-02T10:00:00Z,29.2533,-90.6633,1.0,10.7,340.0,-9999.0,'1111122,1111122,1111122' 
LUMCON,ioos:station:LUMCON:101:1,2016-04-02T10:15:00Z,29.2533,-90.6633,1.0,11.3,331.0,-9999.0,'1111122,1111122,1111122' 
LUMCON,ioos:station:LUMCON:101:1,2016-04-02T10:30:00Z,29.2533,-90.6633,1.0,7.2,344.0,-9999.0,'1111122,1111122,1111122' 
LUMCON,ioos:station:LUMCON:101:1,2016-04-02T10:45:00Z,29.2533,-90.6633,1.0,7.2,341.0,-9999.0,'1111122,1111122,1111122' 
LUMCON,ioos:station:LUMCON:101:1,2016-04-02T11:00:00Z,29.2533,-90.6633,1.0,6.7,335.0,-9999.0,'1111122,1111122,1111122' 
LUMCON,ioos:station:LUMCON:101:1,2016-04-02T11:15:00Z,29.2533,-90.6633,1.0,8.1,337.0,-9999.0,'1111122,1111122,1111122' 
LUMCON,ioos:station:LUMCON:101:1,2016-04-02T11:30:00Z,29.2533,-90.6633,1.0,8.6,336.0,-9999.0,'1111122,1111122,1111122' 
LUMCON,ioos:station:LUMCON:101:1,2016-04-02T11:45:00Z,29.2533,-90.6633,1.0,6.9,336.0,-9999.0,'1111122,1111122,1111122' 
LUMCON,ioos:station:LUMCON:101:1,2016-04-02T12:00:00Z,29.2533,-90.6633,1.0,7.4,342.0,-9999.0,'1111122,1111122,1111122' 
LUMCON,ioos:station:LUMCON:101:1,2016-04-02T12:15:00Z,29.2533,-90.6633,1.0,7.6,349.0,-9999.0,'1111122,1111122,1111122' 
LUMCON,ioos:station:LUMCON:101:1,2016-04-02T12:30:00Z,29.2533,-90.6633,1.0,9.8,342.0,-9999.0,'1111122,1111122,1111122' 
LUMCON,ioos:station:LUMCON:101:1,2016-04-02T12:45:00Z,29.2533,-90.6633,1.0,6.2,334.0,-9999.0,'1111122,1111122,1111122' 
LUMCON,ioos:station:LUMCON:101:1,2016-04-02T13:00:00Z,29.2533,-90.6633,1.0,8.2,343.0,-9999.0,'1111122,1111122,1111122' 
LUMCON,ioos:station:LUMCON:101:1,2016-04-02T13:15:00Z,29.2533,-90.6633,1.0,5.1,333.0,-9999.0,'1111122,1111122,1111122' 
LUMCON,ioos:station:LUMCON:101:1,2016-04-02T13:30:00Z,29.2533,-90.6633,1.0,7.0,342.0,-9999.0,'1111122,1111122,1111122' 
LUMCON,ioos:station:LUMCON:101:1,2016-04-02T13:45:00Z,29.2533,-90.6633,1.0,11.4,339.0,-9999.0,'1111122,1111122,1111122' 
LUMCON,ioos:station:LUMCON:101:1,2016-04-02T14:00:00Z,29.2533,-90.6633,1.0,10.9,338.0,-9999.0,'1111122,1111122,1111122' 
LUMCON,ioos:station:LUMCON:101:1,2016-04-02T14:15:00Z,29.2533,-90.6633,1.0,10.5,337.0,-9999.0,'1111122,1111122,1111122' 
LUMCON,ioos:station:LUMCON:101:1,2016-04-02T14:30:00Z,29.2533,-90.6633,1.0,9.2,339.0,-9999.0,'1111122,1111122,1111122' 
LUMCON,ioos:station:LUMCON:101:1,2016-04-02T14:45:00Z,29.2533,-90.6633,1.0,8.2,343.0,-9999.0,'1111122,1111122,1111122' 
LUMCON,ioos:station:LUMCON:101:1,2016-04-02T15:00:00Z,29.2533,-90.6633,1.0,9.6,354.0,-9999.0,'1111122,1111122,1111122' 
LUMCON,ioos:station:LUMCON:101:1,2016-04-02T15:15:00Z,29.2533,-90.6633,1.0,7.1,333.0,-9999.0,'1111122,1111122,1111122' 
LUMCON,ioos:station:LUMCON:101:1,2016-04-02T15:30:00Z,29.2533,-90.6633,1.0,6.6,344.0,-9999.0,'1111122,1111122,1111122' 
LUMCON,ioos:station:LUMCON:101:1,2016-04-02T15:45:00Z,29.2533,-90.6633,1.0,7.1,334.0,-9999.0,'1111122,1111122,1111122' 
LUMCON,ioos:station:LUMCON:101:1,2016-04-02T16:00:00Z,29.2533,-90.6633,1.0,7.3,327.0,-9999.0,'1111122,1111122,1111122' 
LUMCON,ioos:station:LUMCON:101:1,2016-04-02T16:15:00Z,29.2533,-90.6633,1.0,6.7,337.0,-9999.0,'1111122,1111122,1111122' 
LUMCON,ioos:station:LUMCON:101:1,2016-04-02T16:30:00Z,29.2533,-90.6633,1.0,7.4,323.0,-9999.0,'1111122,1111122,1111122' 
LUMCON,ioos:station:LUMCON:101:1,2016-04-02T16:45:00Z,29.2533,-90.6633,1.0,4.8,328.0,-9999.0,'1111122,1111122,1111122' 
LUMCON,ioos:station:LUMCON:101:1,2016-04-02T17:00:00Z,29.2533,-90.6633,1.0,7.6,333.0,-9999.0,'1111122,1111122,1111122' 
LUMCON,ioos:station:LUMCON:101:1,2016-04-02T17:15:00Z,29.2533,-90.6633,1.0,7.1,334.0,-9999.0,'1111122,1111122,1111122' 
LUMCON,ioos:station:LUMCON:101:1,2016-04-02T17:30:00Z,29.2533,-90.6633,1.0,8.3,326.0,-9999.0,'1111122,1111122,1111122' 
LUMCON,ioos:station:LUMCON:101:1,2016-04-02T17:45:00Z,29.2533,-90.6633,1.0,7.3,353.0,-9999.0,'1111122,1111122,1111122' 
LUMCON,ioos:station:LUMCON:101:1,2016-04-02T18:00:00Z,29.2533,-90.6633,1.0,7.6,335.0,-9999.0,'1111122,1111122,1111122' 
LUMCON,ioos:station:LUMCON:101:1,2016-04-02T18:15:00Z,29.2533,-90.6633,1.0,6.6,323.0,-9999.0,'1111122,1111122,1111122' 
LUMCON,ioos:station:LUMCON:101:1,2016-04-02T18:30:00Z,29.2533,-90.6633,1.0,6.6,332.0,-9999.0,'1111122,1111122,1111122' 
LUMCON,ioos:station:LUMCON:101:1,2016-04-02T18:45:00Z,29.2533,-90.6633,1.0,5.6,348.0,-9999.0,'1111122,1111122,1111122' 
LUMCON,ioos:station:LUMCON:101:1,2016-04-02T19:00:00Z,29.2533,-90.6633,1.0,5.7,353.0,-9999.0,'1111122,1111122,1111122' 
LUMCON,ioos:station:LUMCON:101:1,2016-04-02T19:15:00Z,29.2533,-90.6633,1.0,4.9,334.0,-9999.0,'1111122,1111122,1111122' 
LUMCON,ioos:station:LUMCON:101:1,2016-04-02T19:30:00Z,29.2533,-90.6633,1.0,5.9,333.0,-9999.0,'1111122,1111122,1111122' 
LUMCON,ioos:station:LUMCON:101:1,2016-04-02T19:45:00Z,29.2533,-90.6633,1.0,5.7,281.0,-9999.0,'1111122,1111122,1111122' 
LUMCON,ioos:station:LUMCON:101:1,2016-04-02T20:00:00Z,29.2533,-90.6633,1.0,5.9,335.0,-9999.0,'1111122,1111122,1111122' 
LUMCON,ioos:station:LUMCON:101:1,2016-04-02T20:15:00Z,29.2533,-90.6633,1.0,6.0,317.0,-9999.0,'1111122,1111122,1111122' 
LUMCON,ioos:station:LUMCON:101:1,2016-04-02T20:30:00Z,29.2533,-90.6633,1.0,4.9,281.0,-9999.0,'1111122,1111122,1111122' 
LUMCON,ioos:station:LUMCON:101:1,2016-04-02T20:45:00Z,29.2533,-90.6633,1.0,5.0,320.0,-9999.0,'1111122,1111122,1111122' 
LUMCON,ioos:station:LUMCON:101:1,2016-04-02T21:00:00Z,29.2533,-90.6633,1.0,6.1,291.0,-9999.0,'1111122,1111122,1111122' 
LUMCON,ioos:station:LUMCON:101:1,2016-04-02T21:15:00Z,29.2533,-90.6633,1.0,6.9,299.0,-9999.0,'1111122,1111122,1111122' 
LUMCON,ioos:station:LUMCON:101:1,2016-04-02T21:30:00Z,29.2533,-90.6633,1.0,3.8,302.0,-9999.0,'1111122,1111122,1111122' 
LUMCON,ioos:station:LUMCON:101:1,2016-04-02T21:45:00Z,29.2533,-90.6633,1.0,7.1,306.0,-9999.0,'1111122,1111122,1111122' 
LUMCON,ioos:station:LUMCON:101:1,2016-04-02T22:00:00Z,29.2533,-90.6633,1.0,5.8,301.0,-9999.0,'1111122,1111122,1111122' 
LUMCON,ioos:station:LUMCON:101:1,2016-04-02T22:15:00Z,29.2533,-90.6633,1.0,7.4,312.0,-9999.0,'1111122,1111122,1111122' 
LUMCON,ioos:station:LUMCON:101:1,2016-04-02T22:30:00Z,29.2533,-90.6633,1.0,8.2,296.0,-9999.0,'1111122,1111122,1111122' 
LUMCON,ioos:station:LUMCON:101:1,2016-04-02T22:45:00Z,29.2533,-90.6633,1.0,7.2,305.0,-9999.0,'1111122,1111122,1111122' 
LUMCON,ioos:station:LUMCON:101:1,2016-04-02T23:00:00Z,29.2533,-90.6633,1.0,7.5,313.0,-9999.0,'1111122,1111122,1111122' 
LUMCON,ioos:station:LUMCON:101:1,2016-04-02T23:15:00Z,29.2533,-90.6633,1.0,6.6,306.0,-9999.0,'1111122,1111122,1111122' 
LUMCON,ioos:station:LUMCON:101:1,2016-04-02T23:30:00Z,29.2533,-90.6633,1.0,6.9,308.0,-9999.0,'1111122,1111122,1111122' 
LUMCON,ioos:station:LUMCON:101:1,2016-04-02T23:45:00Z,29.2533,-90.6633,1.0,6.4,313.0,-9999.0,'1111122,1111122,1111122' 
LUMCON,ioos:station:LUMCON:101:1,2016-04-03T00:00:00Z,29.2533,-90.6633,1.0,5.8,318.0,-9999.0,'1111122,1111122,1111122' 
LUMCON,ioos:station:LUMCON:101:1,2016-04-03T00:15:00Z,29.2533,-90.6633,1.0,6.3,307.0,-9999.0,'1111122,1111122,1111122' 
LUMCON,ioos:station:LUMCON:101:1,2016-04-03T00:30:00Z,29.2533,-90.6633,1.0,5.1,318.0,-9999.0,'1111122,1111122,1111122' 
LUMCON,ioos:station:LUMCON:101:1,2016-04-03T00:45:00Z,29.2533,-90.6633,1.0,4.7,311.0,-9999.0,'1111122,1111122,1111122' 
LUMCON,ioos:station:LUMCON:101:1,2016-04-03T01:00:00Z,29.2533,-90.6633,1.0,3.9,306.0,-9999.0,'1111122,1111122,1111122' 
LUMCON,ioos:station:LUMCON:101:1,2016-04-03T01:15:00Z,29.2533,-90.6633,1.0,6.5,314.0,-9999.0,'1111122,1111122,1111122' 
LUMCON,ioos:station:LUMCON:101:1,2016-04-03T01:30:00Z,29.2533,-90.6633,1.0,5.1,307.0,-9999.0,'1111122,1111122,1111122' 
LUMCON,ioos:station:LUMCON:101:1,2016-04-03T01:45:00Z,29.2533,-90.6633,1.0,6.7,312.0,-9999.0,'1111122,1111122,1111122' 